Weather History for Ellensburg, WA

Change the Weather History Date:

Thursday, April 25, 2013

  Actual Average (KYKM) Record (KYKM)
Temperature  
Mean Temperature 62 °F 51 °F  
Max Temperature 73 °F 66 °F 86 °F (1952)
Min Temperature 51 °F 36 °F 25 °F (1955)
Degree Days  
Heating Degree Days 3 14  
Month to date heating degree days 411  
Since 1 July heating degree days 5615  
Cooling Degree Days 0 0  
Month to date cooling degree days 0  
Year to date cooling degree days 0  
Growing Degree Days 12 (Base 50)    
Moisture  
Dew Point 32 °F    
Average Humidity 34    
Maximum Humidity 44    
Minimum Humidity 26    
Precipitation  
Precipitation 0.00 in 0.02 in 0.45 in (2012)
Month to date precipitation 0.45  
Year to date precipitation 2.99  
Snow  
Snow 0.00 in 0.00 in 0.00 in (2002)
Month to date snowfall 0.0  
Year to date snowfall 8.6  
Since 1 July snowfall 21.6  
Snow Depth -    
Sea Level Pressure  
Sea Level Pressure 29.98 in    
Wind  
Wind Speed 18 mph (NW)    
Max Wind Speed 29 mph    
Max Gust Speed 37 mph    
Visibility 10 miles    
Events      
T = Trace of Precipitation, MM = Missing Value Source: NWS Daily Summary

Daily Weather History Graph

Daily Weather History Graph

Search for Another Location

Airport:

Trip Planner

Search our weather history database for the weather conditions in past years. The results will help you decide how hot, cold, wet, or windy it might be!

Date:

Astronomy

Apr. 25, 2013 Rise Set
Actual Time 5:55 AM PDT 8:05 PM PDT
Civil Twilight 5:22 AM PDT 8:38 PM PDT
Nautical Twilight 4:41 AM PDT 9:19 PM PDT
Astronomical Twilight 3:55 AM PDT 10:05 PM PDT
Moon 8:26 PM PDT (4/25) 5:42 AM PDT (4/25)
Length of Visible Light 15h 15m
Length of Day
14h 09m
Full, 100% of the Moon is Illuminated
Apr 25
Full
Apr 25
Full
May 2
Last Quarter
May 9
New
May 17
First Quarter

Hourly Weather History & Observations

Time (PDT) Temp. Dew Point Humidity Pressure Visibility Wind Dir Wind Speed Gust Speed Precip Events Conditions
12:53 AM 52.0 °F 23.0 °F 32% 29.98 in 10.0 mi NNW 12.7 mph - N/A   Clear
1:53 AM 53.1 °F 23.0 °F 31% 29.95 in 10.0 mi NNW 16.1 mph 23.0 mph N/A   Clear
2:53 AM 52.0 °F 24.1 °F 34% 29.95 in 10.0 mi NW 16.1 mph 25.3 mph N/A   Clear
3:53 AM 51.1 °F 25.0 °F 36% 29.95 in 10.0 mi NW 20.7 mph - N/A   Clear
4:53 AM 51.1 °F 26.1 °F 38% 29.95 in 10.0 mi NW 16.1 mph - N/A   Clear
5:53 AM 51.1 °F 27.0 °F 39% 29.95 in 10.0 mi NNW 11.5 mph - N/A   Clear
6:53 AM 52.0 °F 28.9 °F 41% 29.96 in 10.0 mi NNW 15.0 mph - N/A   Clear
7:53 AM 57.0 °F 30.0 °F 36% 29.96 in 10.0 mi NW 23.0 mph 27.6 mph N/A   Clear
8:53 AM 60.1 °F 30.9 °F 33% 29.96 in 10.0 mi NW 21.9 mph 29.9 mph N/A   Clear
9:53 AM 64.0 °F 33.1 °F 31% 29.96 in 10.0 mi NW 20.7 mph 27.6 mph N/A   Clear
10:53 AM 68.0 °F 36.0 °F 31% 29.96 in 10.0 mi WNW 21.9 mph 27.6 mph N/A   Clear
11:53 AM 70.0 °F 36.0 °F 29% 29.96 in 10.0 mi WNW 20.7 mph 27.6 mph N/A   Clear
12:53 PM 73.0 °F 37.9 °F 28% 29.96 in 10.0 mi NW 25.3 mph 31.1 mph N/A   Clear
1:53 PM 72.0 °F 37.0 °F 28% 29.96 in 10.0 mi WNW 23.0 mph 33.4 mph N/A   Clear
2:53 PM 73.9 °F 37.0 °F 26% 29.96 in 10.0 mi WNW 28.8 mph 34.5 mph N/A   Clear
3:53 PM 73.0 °F 37.0 °F 27% 29.96 in 10.0 mi WNW 28.8 mph 36.8 mph N/A   Clear
4:53 PM 71.1 °F 36.0 °F 28% 29.97 in 10.0 mi WNW 24.2 mph 36.8 mph N/A   Clear
5:53 PM 70.0 °F 36.0 °F 29% 29.99 in 10.0 mi WNW 26.5 mph 36.8 mph N/A   Clear
6:53 PM 68.0 °F 36.0 °F 31% 30.01 in 10.0 mi WNW 20.7 mph 28.8 mph N/A   Clear
7:53 PM 64.0 °F 36.0 °F 35% 30.01 in 10.0 mi NW 13.8 mph 27.6 mph N/A   Clear
8:53 PM 60.1 °F 36.0 °F 41% 30.04 in 10.0 mi NW 10.4 mph - N/A   Clear
9:53 PM 59.0 °F 37.0 °F 44% 30.05 in 10.0 mi WNW 16.1 mph - N/A   Clear
10:53 PM 57.9 °F 36.0 °F 44% 30.05 in 10.0 mi NW 18.4 mph - N/A   Clear